Temp
30 29 30 31 29 26 27 27 25 26 29 28 23 21 23 22 21 22 23 23 26 28 29 30 30 30 30 29 29 29 29 30 30 29 29 29 29 29 28 28 29 29 29 28 28 27 27 26 26 25 25 25 24 24 24 23 23 23 23 22 22 22 22
29 30 30 31 30 29 27 24 26 29 30 29 25 21 22 22 20 21 23 23 23 24 25 29 30 29 30 30 29 29 29 29 29 29 29 29 29 29 29 29 29 29 29 29 28 28 28 27 27 26 26 25 24 24 24 23 23 23 23 23 22 22 22
29 30 29 28 29 31 29 27 29 29 25 24 24 22 21 21 20 21 22 22 23 22 24 28 29 28 29 29 29 30 29 29 29 29 30 30 30 30 29 29 29 30 30 29 29 28 28 28 27 27 26 25 24 24 24 24 24 24 24 23 23 22 22
29 29 27 25 26 29 30 30 30 29 26 24 23 23 22 21 20 20 21 21 22 24 28 30 29 29 30 30 29 30 30 29 29 30 30 30 30 30 30 30 30 30 30 30 30 29 28 28 27 27 26 25 25 24 24 24 24 24 24 23 23 23 22
27 26 26 26 26 27 27 26 26 27 27 26 25 25 24 23 21 20 21 20 22 27 31 32 31 29 29 30 30 30 30 30 30 30 30 30 30 30 30 30 30 30 30 30 30 29 29 28 27 27 26 25 25 25 25 24 24 23 23 23 23 23 23
24 25 29 29 29 29 28 26 26 26 26 24 23 22 24 24 22 21 21 20 22 29 32 33 33 30 29 30 30 30 30 30 30 30 31 30 30 30 30 30 30 30 30 30 30 29 29 28 27 26 26 26 25 25 25 25 24 24 23 23 23 23 23
25 27 30 30 29 30 30 29 28 28 27 24 21 20 22 23 23 23 23 21 24 30 32 33 33 31 29 30 30 30 31 31 31 30 31 31 31 31 31 31 31 31 30 30 30 29 28 28 28 27 26 26 26 25 25 25 24 24 24 23 23 23 23
26 28 29 30 30 30 29 29 30 29 27 26 25 24 24 23 22 23 22 20 24 30 33 34 33 30 29 30 30 31 31 31 31 31 31 31 31 31 31 31 31 31 31 30 29 29 28 28 27 27 26 26 26 25 25 25 24 24 24 23 23 23 23
22 23 25 26 27 28 28 28 30 29 29 28 27 26 25 23 22 23 21 20 24 29 33 35 33 30 30 31 30 31 31 31 31 31 31 31 31 31 31 31 31 31 30 29 29 29 29 28 28 27 27 26 26 25 25 25 24 24 24 23 23 23 23
19 20 21 22 24 26 28 29 29 29 29 28 26 24 23 21 22 23 22 21 25 29 32 33 34 33 32 31 29 30 31 31 31 31 31 31 31 31 31 31 31 30 30 29 29 29 29 28 28 28 27 26 26 26 25 25 24 24 24 23 23 23 23
21 21 23 25 27 26 25 27 28 28 29 29 27 24 21 21 22 22 22 23 25 28 30 31 33 33 32 31 31 30 30 31 31 31 31 31 31 31 31 31 30 30 30 29 29 29 29 29 28 28 28 27 26 26 25 25 24 24 24 23 23 23 22
24 25 26 28 28 26 26 27 27 28 29 29 27 23 23 24 22 20 24 26 25 27 30 31 32 33 32 32 32 29 29 31 31 31 31 31 31 31 30 30 30 30 30 30 29 29 29 29 28 28 28 27 27 26 26 25 24 24 24 24 23 23 23
26 28 28 28 28 28 28 28 27 27 28 28 26 25 25 26 23 22 25 27 26 28 31 31 31 32 31 31 31 30 30 32 31 31 30 30 30 30 30 30 30 30 30 30 30 30 30 29 28 28 28 27 27 26 26 26 25 24 24 24 23 23 23
25 27 27 28 28 27 28 28 28 28 28 28 28 27 28 27 26 26 28 28 28 30 32 31 31 31 30 30 30 30 30 30 31 32 31 31 30 30 30 30 30 30 30 30 30 31 30 29 29 28 28 27 27 27 26 26 25 25 24 24 24 23 23
22 26 27 28 28 27 26 27 28 29 28 28 28 28 28 27 26 27 27 27 27 29 30 31 29 28 30 31 30 30 31 29 29 31 32 32 32 32 31 31 31 31 30 30 30 31 31 30 29 29 29 28 28 27 27 26 26 25 24 24 24 24 24
19 24 26 27 28 27 25 25 27 28 27 27 27 28 28 27 26 26 25 24 26 28 30 31 29 27 32 33 29 28 30 30 29 30 31 31 32 33 33 32 31 30 30 30 31 31 31 31 30 30 30 29 28 27 27 26 26 25 24 25 24 24 24
18 21 24 26 26 24 22 24 26 27 28 28 28 28 29 29 29 27 25 25 28 30 30 31 31 30 31 32 30 28 30 31 29 29 30 31 31 31 31 30 30 30 30 30 31 32 32 32 31 31 30 29 28 28 27 27 26 25 25 25 25 25 25
17 19 22 24 23 20 22 27 29 29 29 29 28 28 29 30 30 29 28 29 30 31 30 31 32 30 29 31 32 32 31 31 30 31 32 32 31 31 30 30 30 30 30 31 32 33 33 33 32 32 31 30 30 29 28 27 26 26 25 25 25 25 25
18 19 21 20 19 21 25 29 30 29 29 30 29 28 28 29 29 29 29 28 28 28 29 29 29 28 29 30 31 30 30 30 30 32 33 33 33 32 32 31 30 30 31 32 32 33 33 33 32 32 31 30 30 29 28 27 26 26 26 25 25 25 25
19 19 19 19 21 24 28 29 29 29 29 29 28 25 25 27 27 28 28 27 27 28 27 26 27 28 29 28 28 28 29 29 29 30 33 34 34 34 33 33 33 32 32 32 33 33 33 33 32 32 31 31 30 29 28 27 27 26 26 25 25 25 25
19 18 18 21 22 23 26 28 28 28 28 29 28 24 24 25 25 25 26 26 27 27 26 24 26 28 29 28 27 27 27 28 29 29 31 32 33 34 34 33 34 34 33 33 33 33 33 33 32 32 31 31 30 29 28 27 27 26 26 26 25 25 25
19 18 18 20 20 20 23 26 27 28 28 28 28 25 23 25 24 23 24 25 25 27 28 24 24 28 30 28 25 24 25 26 29 30 30 31 31 32 32 32 32 32 32 33 33 33 33 33 32 32 31 30 30 29 28 28 27 26 26 26 26 25 25
18 17 17 19 20 20 21 23 25 26 26 27 28 23 21 24 24 22 23 23 23 25 26 25 25 29 30 26 23 22 23 24 27 29 31 31 31 31 32 32 32 32 32 32 33 33 32 33 33 32 31 30 29 29 29 29 28 27 26 26 26 26 26
17 17 17 19 20 18 17 18 19 21 24 27 26 21 19 23 23 21 22 22 22 21 21 23 25 27 27 24 22 21 22 23 25 28 29 29 30 30 31 31 32 32 33 33 33 32 32 32 32 32 31 31 30 30 30 29 28 27 27 27 27 27 27
16 16 17 18 19 17 16 16 16 18 23 26 23 20 21 22 21 21 21 21 21 20 20 22 23 21 21 21 20 21 23 25 25 26 27 27 28 28 29 30 30 31 32 32 33 33 33 33 32 32 32 32 31 31 31 29 28 29 29 28 28 28 27
15 15 16 17 17 16 16 16 17 20 23 23 20 20 22 21 20 21 21 20 20 20 18 19 19 18 19 20 20 22 24 24 25 26 26 27 28 28 28 29 30 31 31 31 32 32 32 32 32 32 32 32 32 32 31 30 30 30 29 29 28 27 27
15 15 16 16 16 16 16 16 17 19 20 20 20 20 20 20 19 20 20 19 20 19 18 18 19 19 20 21 21 22 23 23 24 24 25 26 27 27 27 28 29 30 30 31 31 31 30 30 30 29 29 29 30 30 30 31 31 30 29 28 27 27 26
15 14 14 15 15 15 15 15 15 15 16 19 20 19 19 19 19 19 18 18 19 19 19 19 19 20 21 21 21 22 22 22 23 23 24 24 25 25 26 26 27 28 29 29 29 29 29 29 28 28 28 28 28 27 27 28 28 27 27 27 27 26 26
15 14 15 15 15 15 14 14 14 15 16 17 18 18 18 17 17 18 18 17 18 19 20 20 19 19 19 20 20 21 21 21 22 22 22 23 23 24 24 24 25 26 27 28 27 27 28 28 28 27 27 27 27 27 26 26 26 25 25 26 26 26 26
15 15 14 14 14 14 14 14 14 15 16 16 16 16 17 16 16 17 17 16 17 18 19 19 18 17 18 19 19 19 20 20 21 21 21 22 22 23 24 24 25 25 25 26 26 26 26 26 26 26 26 26 26 26 26 26 26 25 24 24 25 26 26
15 15 14 13 14 14 14 14 14 15 15 15 15 15 15 15 16 16 16 16 16 17 18 18 16 16 17 18 18 18 19 19 19 19 20 20 21 21 22 23 23 24 24 25 26 26 25 25 26 26 26 26 26 26 26 25 25 25 24 24 24 24 24
14 15 14 13 14 14 14 14 14 14 14 15 14 14 14 15 15 15 16 16 17 17 17 17 16 16 16 16 17 17 17 17 17 18 18 18 18 19 19 20 21 23 23 23 24 25 25 25 26 25 25 26 26 26 26 25 25 25 25 23 22 21 21
14 14 14 13 14 14 14 13 14 13 13 14 14 14 14 14 14 15 16 16 16 17 16 17 17 17 16 16 16 16 16 16 17 17 17 17 17 17 18 18 20 21 21 21 22 23 23 24 25 25 25 25 25 25 25 26 26 26 25 24 22 21 20
13 13 13 13 13 14 13 12 13 14 13 13 13 13 14 14 14 14 15 15 16 16 16 17 17 16 15 16 16 16 16 16 16 16 16 16 17 17 17 17 18 19 19 19 20 20 21 22 22 23 23 23 24 24 25 25 26 25 24 23 23 22 20
13 13 12 12 13 13 12 12 14 14 14 13 13 13 13 14 14 15 16 16 16 16 16 16 16 16 16 16 16 16 16 16 16 16 16 16 16 16 16 16 17 17 17 18 18 19 19 19 20 21 22 22 23 23 23 23 23 22 21 20 20 19 18
12 12 12 12 13 12 12 13 13 14 14 13 13 13 13 13 15 16 16 16 16 16 16 16 16 16 16 16 16 16 16 16 16 16 16 16 16 15 15 16 16 16 16 17 17 18 18 18 18 19 19 20 20 21 21 20 19 19 18 17 16 16 15
11 12 12 12 12 12 12 13 13 13 13 13 12 13 13 13 14 16 17 17 17 17 17 17 17 17 17 16 16 16 16 16 16 16 16 16 16 15 15 16 16 16 16 16 16 16 17 17 17 17 17 17 17 18 19 19 18 17 16 16 16 16 15
Height
1403 1407 1407 1405 1416 1426 1427 1428 1433 1432 1426 1433 1448 1452 1443 1445 1458 1451 1437 1435 1428 1420 1416 1407 1405 1409 1408 1409 1411 1411 1415 1416 1420 1423 1424 1426 1429 1431 1434 1437 1439 1442 1444 1447 1449 1452 1454 1458 1461 1463 1465 1468 1471 1475 1479 1482 1486 1489 1492 1495 1498 1501 1504
1402 1398 1402 1402 1402 1410 1421 1429 1425 1420 1422 1427 1439 1453 1452 1454 1464 1452 1434 1435 1434 1431 1427 1414 1410 1414 1412 1410 1410 1410 1411 1413 1416 1418 1419 1421 1423 1426 1429 1431 1434 1437 1439 1442 1444 1446 1449 1451 1454 1457 1460 1463 1467 1471 1474 1478 1481 1485 1488 1491 1494 1497 1500
1402 1394 1403 1410 1402 1398 1408 1414 1411 1417 1432 1436 1437 1447 1453 1458 1464 1452 1437 1433 1431 1430 1425 1415 1413 1415 1412 1410 1409 1409 1409 1411 1412 1413 1415 1417 1419 1422 1425 1427 1430 1432 1434 1437 1438 1441 1444 1447 1450 1452 1456 1460 1464 1468 1470 1473 1476 1479 1483 1487 1490 1493 1496
1399 1397 1405 1415 1411 1402 1401 1405 1407 1411 1421 1428 1430 1433 1437 1447 1456 1453 1445 1438 1429 1419 1412 1409 1410 1408 1405 1406 1407 1406 1406 1405 1407 1408 1410 1413 1415 1418 1420 1422 1425 1427 1429 1431 1433 1436 1439 1442 1446 1449 1454 1457 1460 1463 1466 1469 1472 1476 1479 1483 1485 1489 1491
1400 1402 1401 1403 1407 1407 1406 1410 1413 1413 1413 1417 1421 1422 1421 1431 1445 1449 1449 1444 1427 1407 1398 1399 1401 1400 1398 1398 1399 1400 1399 1399 1401 1402 1404 1407 1409 1412 1415 1417 1420 1422 1424 1426 1429 1432 1435 1439 1443 1446 1450 1453 1456 1459 1462 1465 1468 1472 1475 1478 1481 1484 1487
1402 1399 1390 1387 1392 1396 1401 1406 1407 1410 1414 1417 1426 1429 1420 1418 1429 1434 1439 1440 1420 1396 1388 1389 1391 1393 1392 1391 1392 1394 1393 1394 1396 1397 1399 1401 1404 1407 1410 1412 1415 1418 1420 1423 1426 1429 1433 1436 1439 1442 1445 1449 1452 1455 1457 1461 1464 1466 1469 1472 1476 1479 1482
1397 1391 1381 1380 1382 1383 1389 1395 1397 1403 1410 1413 1425 1433 1425 1419 1420 1418 1425 1430 1411 1388 1381 1383 1385 1386 1385 1385 1386 1388 1389 1389 1391 1392 1395 1397 1399 1402 1405 1407 1411 1413 1416 1419 1422 1426 1430 1432 1435 1437 1441 1444 1447 1449 1453 1456 1459 1461 1464 1468 1471 1475 1478
1390 1385 1380 1378 1377 1380 1387 1389 1389 1396 1402 1404 1410 1415 1416 1417 1417 1417 1425 1426 1406 1386 1378 1378 1381 1382 1382 1382 1382 1383 1383 1384 1387 1389 1391 1394 1396 1398 1400 1403 1406 1409 1412 1415 1419 1423 1426 1428 1431 1434 1437 1440 1443 1447 1450 1452 1454 1458 1462 1465 1468 1471 1474
1405 1398 1394 1389 1384 1383 1386 1385 1384 1386 1390 1397 1402 1404 1409 1415 1413 1414 1423 1421 1404 1387 1378 1376 1379 1380 1382 1382 1380 1381 1382 1382 1385 1387 1388 1391 1392 1394 1397 1400 1403 1406 1409 1413 1416 1418 1421 1424 1427 1430 1433 1437 1440 1443 1446 1448 1451 1456 1459 1462 1465 1468 1470
1412 1408 1400 1393 1387 1384 1382 1380 1380 1381 1384 1392 1400 1404 1412 1416 1412 1410 1414 1412 1401 1389 1382 1379 1379 1379 1381 1381 1379 1380 1380 1379 1381 1383 1385 1387 1389 1391 1394 1396 1400 1404 1407 1410 1412 1414 1417 1420 1423 1426 1429 1433 1436 1439 1442 1445 1449 1453 1456 1459 1461 1464 1466
1386 1387 1383 1377 1376 1380 1382 1380 1379 1380 1381 1384 1392 1402 1407 1409 1411 1410 1405 1402 1399 1392 1386 1383 1379 1376 1378 1379 1377 1377 1377 1377 1378 1379 1381 1384 1385 1388 1390 1393 1397 1401 1404 1406 1408 1411 1415 1417 1420 1422 1425 1429 1432 1435 1439 1442 1446 1450 1453 1456 1458 1460 1462
1366 1367 1369 1367 1368 1373 1375 1376 1378 1378 1378 1380 1387 1395 1395 1398 1408 1410 1399 1396 1400 1394 1386 1384 1380 1375 1375 1376 1375 1374 1373 1375 1377 1378 1379 1381 1383 1385 1387 1390 1394 1397 1399 1402 1404 1408 1411 1414 1417 1419 1422 1425 1428 1431 1435 1439 1443 1446 1449 1451 1453 1455 1457
1362 1359 1361 1361 1364 1368 1368 1369 1372 1373 1375 1377 1381 1385 1386 1389 1397 1398 1392 1392 1395 1390 1384 1382 1378 1374 1373 1372 1372 1371 1370 1371 1373 1374 1376 1378 1381 1383 1386 1389 1391 1393 1395 1397 1400 1404 1407 1410 1414 1416 1419 1422 1425 1428 1431 1435 1438 1440 1444 1447 1448 1450 1452
1363 1357 1358 1356 1359 1364 1365 1365 1366 1367 1369 1371 1372 1376 1379 1381 1383 1384 1386 1388 1386 1383 1379 1376 1372 1370 1368 1367 1367 1368 1369 1369 1369 1371 1373 1375 1378 1382 1384 1386 1388 1390 1392 1394 1397 1400 1403 1406 1410 1413 1416 1418 1421 1424 1427 1430 1433 1435 1439 1442 1444 1445 1446
1369 1356 1353 1354 1356 1360 1363 1364 1362 1362 1366 1368 1370 1371 1373 1377 1380 1381 1384 1387 1384 1378 1373 1370 1368 1366 1365 1366 1366 1365 1365 1366 1366 1366 1367 1369 1373 1376 1379 1382 1384 1386 1388 1391 1395 1398 1400 1403 1406 1409 1412 1414 1416 1419 1422 1425 1428 1431 1434 1437 1439 1440 1441
1380 1360 1354 1354 1352 1356 1362 1363 1360 1360 1363 1366 1367 1367 1368 1373 1378 1380 1384 1387 1382 1375 1369 1367 1365 1364 1364 1364 1364 1364 1363 1364 1365 1364 1364 1366 1368 1370 1373 1376 1379 1382 1384 1388 1392 1395 1398 1401 1403 1406 1408 1410 1413 1415 1417 1420 1422 1426 1429 1431 1433 1435 1437
1388 1367 1358 1353 1354 1366 1367 1355 1352 1357 1359 1360 1362 1362 1362 1362 1367 1374 1378 1377 1372 1367 1365 1365 1363 1363 1364 1362 1361 1362 1362 1362 1364 1364 1364 1366 1367 1369 1371 1373 1375 1379 1381 1385 1388 1392 1395 1398 1400 1402 1404 1406 1408 1410 1412 1414 1418 1422 1424 1426 1428 1430 1433
1391 1373 1362 1357 1364 1373 1360 1339 1339 1347 1351 1355 1360 1362 1360 1357 1358 1361 1362 1361 1360 1359 1359 1361 1361 1360 1361 1359 1358 1359 1360 1360 1362 1363 1364 1366 1367 1369 1371 1373 1374 1376 1379 1383 1386 1389 1392 1395 1397 1399 1401 1403 1404 1405 1408 1411 1414 1417 1419 1421 1424 1426 1429
1389 1374 1368 1371 1371 1361 1343 1331 1332 1336 1340 1346 1354 1358 1357 1355 1354 1354 1356 1358 1357 1356 1355 1354 1355 1356 1358 1359 1359 1360 1361 1361 1361 1361 1362 1364 1366 1367 1369 1372 1373 1375 1378 1381 1384 1386 1389 1391 1393 1396 1398 1399 1402 1404 1406 1409 1411 1413 1414 1417 1419 1422 1425
1385 1378 1376 1375 1362 1343 1332 1331 1331 1332 1338 1344 1352 1362 1362 1355 1354 1355 1357 1358 1355 1353 1354 1351 1352 1355 1356 1358 1361 1361 1363 1363 1363 1362 1361 1361 1363 1365 1366 1368 1370 1373 1375 1377 1380 1382 1385 1388 1390 1391 1394 1396 1398 1401 1403 1405 1407 1409 1411 1413 1415 1417 1420
1382 1382 1376 1362 1352 1346 1339 1336 1333 1333 1338 1340 1347 1362 1366 1357 1354 1354 1355 1355 1353 1352 1353 1352 1352 1353 1354 1359 1363 1361 1361 1363 1362 1363 1362 1360 1361 1362 1363 1365 1367 1369 1372 1374 1376 1379 1381 1383 1385 1387 1390 1392 1394 1396 1399 1401 1403 1405 1407 1409 1410 1412 1414
1378 1384 1381 1366 1362 1360 1347 1339 1333 1327 1331 1332 1335 1354 1366 1359 1353 1353 1352 1353 1354 1351 1352 1353 1352 1351 1358 1367 1368 1364 1363 1363 1361 1361 1362 1361 1362 1363 1363 1365 1367 1368 1371 1372 1375 1377 1378 1379 1382 1384 1387 1389 1390 1392 1394 1396 1399 1401 1403 1404 1406 1408 1409
1381 1389 1388 1370 1363 1362 1353 1346 1337 1328 1330 1329 1332 1358 1375 1361 1352 1354 1352 1352 1354 1352 1351 1353 1352 1356 1366 1373 1370 1365 1365 1365 1363 1362 1361 1362 1364 1366 1366 1367 1369 1370 1371 1373 1374 1375 1376 1377 1380 1382 1385 1386 1388 1389 1390 1391 1394 1396 1397 1400 1402 1403 1405
1388 1393 1389 1366 1357 1365 1363 1353 1344 1335 1330 1326 1342 1375 1383 1361 1352 1355 1352 1352 1355 1353 1351 1352 1355 1361 1368 1370 1368 1365 1365 1366 1364 1363 1363 1362 1363 1364 1365 1367 1368 1368 1370 1371 1372 1372 1373 1375 1378 1380 1382 1383 1384 1385 1386 1388 1389 1390 1392 1395 1397 1399 1401
1393 1395 1390 1371 1364 1369 1364 1352 1344 1335 1328 1333 1356 1376 1369 1354 1354 1355 1351 1352 1354 1352 1351 1352 1357 1364 1366 1365 1365 1364 1363 1364 1363 1363 1364 1363 1363 1363 1363 1364 1364 1365 1367 1367 1368 1369 1370 1372 1374 1376 1378 1379 1380 1381 1383 1384 1384 1385 1388 1391 1393 1395 1398
1397 1395 1389 1381 1375 1369 1360 1352 1341 1331 1335 1349 1361 1362 1355 1353 1356 1354 1352 1354 1353 1353 1354 1355 1360 1364 1364 1364 1364 1363 1362 1362 1362 1362 1363 1363 1363 1363 1362 1362 1362 1363 1364 1365 1366 1367 1367 1369 1371 1372 1373 1374 1375 1377 1378 1379 1381 1382 1385 1387 1390 1392 1395
1398 1398 1395 1395 1391 1376 1364 1359 1349 1344 1353 1360 1356 1352 1353 1355 1355 1353 1354 1355 1354 1355 1357 1358 1361 1363 1362 1363 1363 1362 1362 1362 1361 1362 1362 1363 1363 1363 1363 1363 1363 1362 1363 1363 1363 1364 1365 1366 1367 1368 1370 1371 1372 1374 1374 1376 1378 1380 1382 1384 1388 1391 1393
1398 1405 1403 1400 1394 1382 1374 1372 1368 1364 1365 1361 1355 1354 1356 1357 1356 1356 1357 1357 1358 1358 1358 1360 1362 1362 1362 1362 1362 1361 1361 1361 1361 1362 1362 1363 1364 1364 1364 1364 1364 1363 1362 1361 1361 1363 1363 1364 1365 1366 1367 1369 1371 1372 1373 1375 1378 1380 1382 1383 1385 1388 1391
1393 1398 1395 1390 1388 1384 1379 1376 1373 1368 1363 1360 1360 1359 1357 1359 1361 1360 1359 1361 1362 1361 1361 1362 1363 1363 1363 1364 1363 1362 1362 1361 1361 1361 1361 1362 1362 1362 1363 1364 1363 1362 1361 1360 1361 1362 1362 1363 1364 1364 1366 1367 1369 1370 1371 1373 1376 1381 1384 1385 1385 1385 1387
1388 1389 1389 1387 1387 1385 1379 1375 1372 1369 1364 1362 1362 1361 1359 1361 1362 1361 1362 1364 1364 1364 1363 1363 1364 1366 1366 1365 1365 1365 1364 1364 1363 1363 1362 1362 1361 1360 1360 1360 1360 1360 1359 1359 1360 1360 1361 1362 1362 1362 1364 1365 1367 1369 1371 1372 1374 1377 1381 1385 1386 1385 1384
1388 1390 1390 1389 1387 1385 1380 1376 1372 1370 1368 1366 1366 1365 1364 1363 1362 1362 1363 1364 1364 1364 1364 1363 1365 1367 1367 1367 1367 1367 1366 1366 1365 1364 1363 1363 1362 1361 1360 1359 1358 1358 1357 1358 1359 1359 1359 1360 1360 1360 1361 1362 1364 1366 1368 1371 1374 1375 1377 1382 1385 1386 1384
1387 1387 1387 1387 1387 1385 1381 1377 1375 1373 1372 1371 1370 1370 1369 1367 1365 1364 1364 1364 1364 1364 1364 1365 1366 1368 1369 1369 1369 1368 1368 1368 1367 1366 1365 1364 1363 1362 1361 1359 1359 1358 1358 1358 1358 1358 1358 1358 1358 1359 1360 1360 1360 1361 1363 1366 1370 1371 1371 1375 1381 1386 1386
1387 1385 1385 1386 1386 1384 1381 1379 1377 1375 1374 1374 1375 1375 1373 1371 1369 1368 1367 1367 1366 1365 1366 1368 1367 1368 1370 1370 1369 1370 1370 1369 1369 1368 1367 1366 1365 1363 1362 1361 1360 1359 1359 1358 1358 1357 1357 1356 1357 1357 1357 1358 1359 1359 1361 1363 1364 1364 1363 1364 1371 1380 1386
1389 1388 1387 1388 1389 1389 1386 1382 1379 1378 1377 1377 1377 1377 1376 1374 1373 1372 1370 1370 1369 1368 1369 1370 1369 1369 1370 1371 1371 1371 1371 1370 1370 1370 1368 1367 1366 1364 1363 1362 1361 1360 1360 1359 1358 1357 1357 1356 1356 1356 1356 1356 1357 1357 1358 1359 1359 1358 1357 1359 1361 1364 1371
1387 1386 1386 1387 1389 1390 1388 1384 1380 1378 1378 1378 1377 1378 1380 1379 1377 1375 1374 1373 1373 1372 1372 1373 1372 1371 1371 1372 1372 1372 1372 1372 1372 1370 1369 1368 1367 1366 1365 1364 1362 1362 1361 1361 1359 1358 1358 1358 1358 1357 1356 1355 1354 1355 1355 1354 1354 1354 1355 1358 1359 1357 1360
1385 1385 1386 1387 1388 1389 1387 1385 1381 1378 1379 1381 1382 1383 1387 1387 1383 1379 1377 1376 1376 1376 1376 1376 1376 1374 1374 1374 1374 1374 1374 1374 1373 1372 1371 1370 1369 1368 1367 1366 1364 1363 1363 1362 1362 1360 1360 1360 1360 1359 1358 1356 1354 1353 1352 1352 1353 1353 1353 1356 1359 1361 1363
1384 1385 1385 1386 1388 1389 1387 1385 1383 1381 1383 1387 1389 1389 1390 1390 1386 1382 1380 1379 1380 1380 1380 1379 1379 1378 1377 1376 1376 1376 1377 1376 1375 1374 1372 1371 1370 1370 1369 1367 1366 1365 1364 1364 1363 1362 1362 1362 1361 1361 1361 1359 1358 1357 1354 1351 1352 1355 1358 1361 1363 1365 1367
Wind_Speed
12 13 9 10 10 6 5 8 9 7 8 8 6 5 3 2 3 5 4 4 4 3 5 6 11 16 16 17 19 21 26 33 33 32 37 41 44 47 50 52 53 55 56 56 56 57 57 57 57 58 58 58 58 57 55 54 52 50 49 49 47 45 44
15 19 14 10 11 9 5 7 8 5 6 7 5 2 3 5 6 4 4 6 5 4 6 5 7 12 14 14 14 16 22 29 29 31 38 41 44 47 50 53 55 55 56 56 56 57 57 58 58 59 59 59 58 57 55 54 53 52 50 48 47 45 44
13 14 13 9 10 11 8 6 7 6 5 6 5 4 5 7 6 5 5 7 5 5 5 5 9 12 14 14 14 15 18 21 26 32 37 41 43 45 48 52 54 55 56 56 57 57 57 58 58 58 58 58 58 56 55 54 53 52 50 47 46 46 44
10 7 8 8 9 10 8 5 6 5 5 7 6 4 4 5 6 5 4 4 5 6 5 7 11 14 16 16 15 15 16 21 29 34 37 40 42 42 46 50 53 55 56 57 57 57 57 57 57 57 57 57 57 56 55 54 53 52 50 48 46 45 45
8 6 6 10 10 9 8 7 7 6 3 3 5 5 4 5 4 4 4 5 6 6 5 8 12 14 16 17 17 16 17 24 34 37 39 42 43 45 48 50 52 55 57 57 57 57 56 56 56 56 56 56 57 56 56 55 53 52 52 50 47 45 45
7 6 6 11 14 12 10 8 9 9 5 3 4 7 4 3 5 5 5 6 7 6 5 8 10 12 13 16 17 15 17 27 36 39 42 44 45 47 49 50 52 54 55 55 55 55 54 54 55 55 56 56 56 56 56 55 54 53 53 51 49 46 45
8 9 7 10 16 17 14 11 9 8 6 5 5 6 3 3 5 4 4 6 8 6 6 7 8 9 11 17 19 16 20 30 35 38 42 44 46 49 50 51 53 53 54 54 53 53 52 53 54 54 55 56 56 57 57 56 55 54 53 51 49 48 46
8 11 8 6 10 14 13 12 10 9 9 8 6 5 4 3 5 4 4 7 7 5 5 7 7 7 9 15 20 21 23 28 31 36 40 43 46 50 51 52 53 53 53 51 50 50 51 52 53 53 54 55 56 56 56 56 56 54 52 51 50 49 48
7 9 9 7 7 9 9 10 12 14 13 11 6 4 4 4 6 7 5 8 6 5 5 8 9 7 7 10 18 22 21 22 27 33 38 42 46 49 49 51 52 50 47 47 48 51 52 53 52 52 53 54 55 55 56 56 55 53 52 51 51 51 50
10 9 9 8 6 7 7 9 14 17 17 15 9 4 5 6 5 5 5 7 5 6 5 10 14 13 8 8 14 20 24 27 30 33 37 42 44 46 48 50 48 44 43 45 49 51 51 52 52 51 52 53 54 55 55 54 53 52 52 51 51 51 51
12 11 9 6 6 8 10 10 13 16 18 18 12 6 7 6 4 5 7 5 4 7 7 11 15 16 12 8 9 14 20 25 29 34 39 42 44 46 47 47 45 42 42 45 48 50 51 51 51 51 52 53 54 54 54 53 52 52 52 51 51 52 52
17 15 13 11 9 10 14 15 14 16 18 18 15 11 8 8 6 9 9 6 6 8 8 9 12 13 10 6 7 12 18 21 24 31 37 41 43 45 44 44 43 43 44 46 47 48 50 50 51 51 51 52 53 54 54 53 52 52 52 52 52 52 52
19 19 17 18 14 8 11 15 16 17 20 21 20 16 10 11 9 12 8 9 9 8 8 9 10 9 8 7 10 15 20 23 25 26 31 35 37 37 38 41 43 44 46 47 47 48 48 48 50 51 51 51 52 53 53 53 52 53 53 53 54 53 53
16 20 19 19 18 12 9 12 15 16 18 22 22 19 14 13 12 10 8 10 10 8 8 10 10 10 10 10 10 12 16 22 26 26 27 29 32 34 37 41 43 45 46 46 47 48 47 47 48 49 50 51 52 53 53 53 54 54 54 54 54 54 54
9 17 21 19 19 17 12 10 13 15 16 18 19 18 15 12 11 8 8 10 9 6 6 8 9 9 8 6 5 9 15 19 23 27 29 31 34 38 42 45 47 47 47 46 46 46 46 45 46 47 48 50 51 53 53 54 54 54 54 55 55 56 55
6 10 19 22 20 17 14 12 13 14 14 14 14 13 12 10 9 8 7 8 7 6 7 8 9 8 9 7 6 9 13 15 16 22 27 31 36 41 44 46 46 46 46 46 46 46 46 44 44 45 47 49 51 53 54 55 55 55 55 56 56 56 55
6 10 14 20 18 13 13 14 12 11 9 10 11 11 12 12 10 8 8 8 7 7 8 8 9 7 7 9 9 11 15 17 17 20 26 29 33 37 41 43 44 44 46 46 47 47 45 43 43 45 47 50 52 53 55 55 55 55 55 56 56 56 54
6 13 13 14 16 12 11 8 10 13 11 10 9 7 9 11 8 6 7 8 8 8 9 9 10 8 8 14 16 14 16 22 24 24 25 27 30 33 36 39 42 44 45 46 46 46 44 42 42 44 47 50 52 53 54 55 54 55 56 56 56 56 55
6 10 9 11 13 11 8 3 7 13 13 12 9 2 2 5 7 5 3 2 5 5 5 8 10 8 7 5 2 3 1 13 24 27 25 24 26 31 35 37 40 43 44 44 44 44 45 44 44 46 48 50 51 53 53 53 53 54 55 56 56 56 56
5 5 4 9 8 5 3 1 3 6 8 10 9 5 5 4 3 3 5 5 5 3 1 5 10 15 18 16 17 17 10 3 10 19 26 28 27 30 33 34 36 38 42 44 44 45 47 47 47 48 49 50 52 53 53 53 53 54 54 55 56 56 57
3 3 5 5 4 2 2 1 1 3 5 9 9 5 3 6 5 2 7 8 6 5 4 1 6 13 16 13 15 17 16 11 5 8 19 28 33 35 36 37 36 36 40 44 46 46 47 48 49 50 50 51 53 53 53 52 52 53 54 55 56 56 57
1 3 5 3 3 4 3 2 2 4 6 8 10 8 1 6 6 2 5 7 5 6 5 3 2 6 8 4 6 15 20 17 10 5 8 17 26 30 33 36 38 38 42 47 48 49 48 48 50 49 49 51 53 53 52 52 52 53 54 56 57 57 58
2 3 5 4 4 3 4 8 6 1 6 9 11 8 1 5 6 4 4 7 6 6 7 6 4 6 5 1 5 10 16 17 14 9 2 7 14 17 20 25 30 33 37 41 45 49 49 48 48 48 47 48 49 50 49 49 51 53 55 57 57 58 58
4 4 5 4 3 2 10 13 14 14 5 8 11 4 3 5 5 4 7 8 6 6 9 9 8 5 4 4 4 9 12 13 15 12 8 4 4 8 11 18 24 28 30 30 34 42 47 49 49 49 47 46 46 47 47 48 51 53 55 56 57 57 58
5 5 5 3 2 3 12 15 17 20 11 5 7 4 6 3 1 7 11 10 8 10 11 10 7 4 4 4 4 9 10 10 12 13 11 9 7 4 3 8 15 21 25 27 28 31 36 42 45 46 47 47 46 46 46 48 51 53 54 55 55 56 57
3 4 4 4 1 4 17 25 24 16 5 4 5 4 5 6 8 12 15 13 13 18 19 16 13 10 8 8 9 11 11 10 11 11 9 8 7 6 4 2 7 11 15 21 27 29 31 35 40 42 45 49 50 49 49 50 51 52 52 54 56 58 58
2 3 3 2 2 7 22 26 17 11 7 3 3 7 9 12 15 17 17 16 16 20 22 20 17 14 12 12 12 12 12 11 11 10 8 7 6 4 4 2 3 6 8 13 21 30 33 35 37 38 40 43 46 47 48 49 50 52 54 55 56 57 57
1 1 2 1 3 10 19 15 5 5 11 7 6 13 11 13 17 20 19 17 17 20 21 20 18 17 15 14 13 12 13 13 12 10 9 7 6 4 4 3 1 2 4 6 10 18 26 30 32 33 34 37 40 41 41 42 42 44 49 54 55 55 55
1 2 3 4 5 10 17 15 10 12 17 15 14 18 18 16 16 19 21 18 17 20 20 20 20 19 17 15 14 14 15 14 13 12 11 10 8 7 5 3 2 2 2 3 4 7 13 21 27 29 31 34 37 39 40 40 38 36 37 44 50 53 54
1 2 5 7 7 11 18 21 21 21 23 21 16 17 22 22 21 23 24 22 21 21 21 22 22 20 17 16 15 15 15 14 13 13 12 12 11 11 9 8 6 5 3 4 5 4 7 14 21 24 28 30 32 34 36 36 37 35 31 34 42 49 52
1 2 2 4 7 9 15 22 25 26 25 22 19 18 19 22 25 27 26 25 25 24 23 25 24 21 19 18 17 16 15 15 16 15 14 14 13 13 13 12 11 9 7 6 6 6 7 10 15 19 24 27 30 33 35 34 34 31 24 24 34 42 45
2 2 3 9 9 8 17 23 23 24 24 21 19 18 19 22 26 26 25 25 25 24 24 25 24 23 21 20 19 18 17 17 17 17 16 15 14 13 13 12 11 10 10 8 7 8 8 9 13 17 22 27 30 33 35 35 36 34 28 25 30 33 34
3 1 5 10 9 8 16 22 22 22 21 19 17 18 20 23 25 26 26 26 24 25 25 23 22 24 24 22 21 21 20 20 20 20 19 18 16 15 13 11 9 8 8 6 6 7 7 9 13 16 19 23 27 30 31 33 36 37 34 32 36 36 34
0 0 4 7 5 3 9 15 18 19 19 18 17 18 19 22 24 25 27 27 27 26 25 23 22 25 26 24 23 23 23 24 23 23 22 21 18 16 14 12 9 6 5 5 5 4 5 7 11 14 16 19 21 23 27 30 34 35 36 39 45 48 45
1 2 5 8 4 2 5 10 14 16 16 17 18 18 18 19 23 25 26 27 28 27 26 25 24 26 26 24 24 25 26 25 25 24 24 24 22 20 18 15 11 8 7 6 5 3 2 5 8 12 14 16 18 19 21 24 28 34 39 41 42 45 47
3 4 6 7 4 0 4 9 14 16 16 16 16 16 15 16 21 25 26 26 26 25 24 24 23 24 25 24 24 25 25 25 24 24 24 25 24 23 21 19 17 14 11 9 9 9 8 5 1 4 6 9 12 16 20 26 30 35 41 42 40 41 40
4 7 8 7 4 5 6 10 14 16 14 12 13 14 14 13 18 23 24 24 23 22 21 21 20 19 20 21 22 22 22 23 23 22 23 24 24 24 23 22 21 18 15 11 9 10 10 10 10 11 11 10 11 14 20 28 31 30 29 28 27 28 27
Wind_Direction
218 216 205 183 180 182 202 197 199 198 167 181 229 237 226 195 224 241 215 231 267 264 252 218 199 203 198 198 201 195 196 198 195 194 194 194 195 197 198 201 203 206 210 211 211 210 211 210 210 211 211 211 212 212 213 214 215 217 218 219 220 222 224
230 220 217 215 196 171 164 200 201 174 159 187 200 207 244 233 243 260 218 230 247 222 241 243 203 206 204 198 194 193 197 197 195 197 198 197 196 196 199 201 204 207 209 211 212 212 212 212 212 213 213 212 212 213 215 214 213 215 218 220 221 222 223
228 218 215 232 223 195 182 187 187 173 177 193 183 183 211 215 231 261 241 233 222 205 228 217 193 201 205 200 194 195 197 196 199 201 200 200 199 197 198 200 204 207 209 211 212 212 212 213 214 214 213 211 211 213 215 215 216 217 219 219 221 221 222
216 211 201 213 229 217 198 182 184 185 182 192 197 193 187 194 215 235 241 238 233 225 209 191 197 200 198 198 197 198 198 197 201 203 203 203 202 199 199 201 204 207 209 212 213 212 212 213 213 212 211 210 210 212 214 216 217 217 217 217 219 220 221
216 210 201 200 206 209 205 199 201 209 199 191 211 207 172 158 178 198 213 231 251 247 198 185 200 203 200 200 198 199 200 199 202 204 203 203 203 202 202 203 205 207 211 212 213 213 212 212 212 210 209 210 210 211 213 215 215 215 215 216 218 220 220
228 220 211 196 194 198 203 205 206 206 195 156 191 220 214 164 180 179 190 234 256 245 192 186 201 203 202 201 199 203 203 201 204 205 203 203 203 203 204 204 206 208 210 211 212 212 211 210 210 209 208 209 210 211 212 214 215 215 215 215 216 218 219
238 232 226 206 199 198 199 209 207 194 188 169 177 215 237 237 217 173 166 237 260 248 191 182 202 204 204 203 196 199 207 205 204 205 205 205 204 205 205 205 207 209 210 211 211 210 208 208 209 209 208 208 210 211 212 213 214 215 215 215 216 217 218
254 248 255 254 220 203 200 209 201 189 197 190 181 191 177 206 224 179 191 237 257 271 213 196 217 204 204 215 206 203 211 206 201 203 205 205 205 207 206 206 208 210 210 210 208 207 207 207 208 208 207 208 210 211 211 212 213 215 215 215 215 216 217
238 246 253 255 235 214 211 209 199 201 199 182 179 190 168 224 223 176 198 235 250 279 221 207 241 221 190 223 219 214 217 208 200 203 205 205 206 207 206 206 208 209 207 205 205 205 206 206 207 207 208 209 209 210 212 213 213 213 214 214 214 215 216
212 219 226 222 205 206 221 210 199 202 198 185 180 176 188 228 221 167 203 234 255 282 226 203 236 241 221 228 225 219 218 212 205 202 203 205 207 207 207 206 207 207 205 204 204 205 205 205 206 208 209 209 210 211 212 213 212 212 213 213 213 214 215
209 208 216 212 171 184 212 211 199 200 202 196 186 181 201 197 169 201 218 193 205 260 237 200 220 239 241 232 224 224 221 214 205 200 202 204 206 207 207 206 206 205 205 206 205 205 206 206 208 210 210 209 210 211 211 212 212 211 212 213 212 214 215
212 201 209 212 183 183 203 206 199 196 201 201 196 205 201 147 157 231 225 174 196 244 247 216 217 236 248 231 218 224 218 208 200 200 201 201 205 207 205 204 203 204 207 208 207 208 208 208 208 210 211 211 211 212 212 212 211 211 212 213 213 214 215
224 205 207 212 206 194 198 205 204 195 197 202 205 212 188 146 188 231 208 182 205 229 243 239 232 237 247 237 223 220 216 206 196 195 197 198 202 204 202 203 204 205 208 208 207 210 211 209 209 209 210 211 211 212 213 212 212 212 212 213 213 214 215
242 215 208 211 215 210 198 209 208 198 197 200 207 213 194 176 205 215 178 192 217 221 223 234 238 237 248 255 234 214 219 213 194 186 189 194 199 201 202 205 206 208 210 208 207 210 211 209 209 209 210 211 211 212 213 212 212 212 212 212 214 214 216
263 224 210 208 217 213 203 211 210 204 205 202 207 214 202 195 216 205 174 200 230 246 238 239 243 233 235 251 202 187 214 218 199 190 191 194 197 201 205 208 208 209 209 207 206 210 212 212 211 212 214 214 214 214 213 212 213 212 211 213 214 216 219
298 244 215 209 215 217 212 214 209 203 206 206 208 208 197 194 202 193 188 211 233 248 244 247 249 226 209 207 171 171 205 216 207 196 193 196 199 201 204 207 207 207 205 203 205 210 213 214 214 216 218 217 215 214 213 213 213 211 211 213 215 218 220
301 288 243 212 208 219 225 221 205 190 199 215 217 210 202 194 179 173 198 215 222 216 205 219 237 225 210 212 191 174 187 200 208 203 196 199 203 202 204 205 204 204 203 202 206 211 214 216 218 220 221 218 217 217 216 214 212 210 211 214 216 218 220
278 300 280 219 201 216 230 214 175 173 186 198 203 215 219 213 204 203 212 211 211 210 193 197 216 217 213 219 213 195 185 188 193 195 196 200 203 204 205 206 205 204 204 204 208 212 215 217 219 221 221 221 221 221 218 214 210 210 212 214 216 218 219
266 299 282 213 202 215 231 208 158 174 183 175 162 129 301 241 233 228 219 204 211 224 217 201 200 184 168 190 221 31 189 198 190 187 190 197 203 205 205 206 207 206 205 208 211 214 216 217 218 218 219 221 222 220 217 213 211 212 213 214 216 217 218
260 292 256 217 220 221 207 69 96 140 158 153 129 65 360 313 273 166 127 125 146 136 125 199 174 143 119 85 53 43 34 296 219 203 201 203 207 208 205 205 209 210 211 211 212 213 216 217 218 219 219 220 221 219 217 215 214 214 214 215 216 217 218
239 280 269 242 250 253 151 112 60 121 156 164 141 115 307 312 336 128 138 129 125 110 86 243 179 141 116 76 37 32 35 28 345 253 224 215 211 209 205 203 205 209 213 213 212 214 217 218 220 221 220 220 219 218 216 215 216 215 215 216 217 218 219
307 303 277 238 205 219 223 248 229 141 139 148 127 110 290 306 339 356 135 121 108 103 75 352 245 126 94 55 354 8 22 33 33 345 262 226 214 209 209 209 210 211 212 213 214 216 219 220 221 222 221 219 218 217 216 216 216 216 216 217 219 219 220
348 318 268 241 181 203 312 338 344 54 136 128 99 75 332 287 321 346 97 105 98 106 93 63 65 86 81 200 283 349 21 42 48 37 352 220 214 214 214 214 216 217 217 219 222 223 222 222 224 224 222 220 218 217 218 219 218 217 218 219 221 222 223
342 323 279 262 132 33 334 338 331 315 301 115 99 90 236 265 318 19 88 96 95 113 109 88 72 78 133 193 297 1 34 57 59 62 76 111 198 224 220 214 216 218 218 221 227 228 227 227 227 226 224 223 222 223 223 222 219 219 221 222 224 226 226
326 313 291 281 131 22 341 331 317 310 308 114 121 194 211 216 24 80 89 91 94 93 90 86 85 98 126 131 50 36 46 58 63 70 78 89 103 114 168 211 221 223 221 220 222 225 227 228 227 227 226 225 227 229 228 224 222 224 227 227 227 228 226
316 300 294 296 227 19 350 332 322 329 342 165 172 172 146 114 90 84 82 82 83 80 78 82 93 100 92 78 65 56 53 53 56 60 68 85 99 95 85 177 220 228 229 226 223 224 226 227 227 227 226 226 228 230 229 228 230 231 230 228 227 226 224
334 302 317 341 261 332 344 336 334 12 17 259 172 107 96 88 84 82 80 83 87 87 85 84 84 83 75 65 59 54 53 54 52 53 59 69 84 85 65 72 209 220 225 226 227 228 228 227 228 227 225 225 227 228 228 231 234 234 231 228 227 224 222
76 286 323 26 254 311 340 343 322 343 343 338 103 105 88 78 87 90 86 85 92 96 93 85 79 74 64 56 48 42 42 41 38 38 40 41 50 61 58 60 81 222 230 235 242 240 237 235 234 232 229 226 226 227 228 231 234 233 230 227 224 222 221
162 164 256 280 297 330 355 4 348 348 10 34 82 105 100 91 96 102 99 97 98 99 96 88 79 72 65 58 50 43 40 33 27 23 18 13 11 6 3 12 21 5 299 285 293 273 253 246 243 241 238 232 229 229 229 231 233 234 233 230 225 222 221
234 182 232 271 317 350 9 17 17 21 34 41 51 79 93 97 100 103 105 106 103 101 102 97 86 77 74 71 62 54 48 41 33 23 13 6 356 342 334 332 331 334 326 301 291 284 263 248 243 242 242 239 237 235 236 237 234 230 233 236 230 224 221
297 162 179 304 324 351 14 22 25 26 33 41 45 56 77 93 100 101 102 104 104 101 101 98 91 85 83 81 75 68 62 55 47 40 30 20 8 353 342 336 330 322 311 292 272 266 261 247 240 239 237 236 237 238 240 242 238 229 229 236 232 224 218
281 170 58 354 335 5 30 33 31 26 28 38 48 55 70 84 93 100 101 101 103 100 97 98 96 88 83 82 79 76 71 65 58 51 44 36 28 18 2 344 330 318 312 302 279 264 253 243 242 240 234 231 234 236 238 240 237 231 227 223 216 210 202
296 258 30 360 345 9 26 31 37 37 37 44 51 61 74 80 84 92 95 95 98 98 96 98 97 89 82 79 79 77 73 68 63 56 51 48 42 36 24 6 343 322 315 313 290 265 246 237 240 240 238 234 234 236 240 241 239 235 226 214 207 201 191
13 324 7 357 348 342 1 22 45 50 47 49 52 60 73 81 83 88 91 92 93 94 94 95 94 90 83 78 79 78 73 69 65 60 57 54 48 44 40 31 14 350 343 349 330 283 250 245 244 245 246 243 240 243 245 244 242 233 217 206 204 201 193
223 289 335 338 331 321 1 35 65 69 61 57 55 54 62 78 89 93 94 93 92 90 90 90 91 90 86 82 82 80 75 73 70 66 62 59 55 52 50 48 45 38 34 38 38 26 305 268 260 257 255 250 247 246 236 222 216 207 193 183 181 179 175
264 284 319 320 300 285 57 69 83 85 79 74 75 74 72 78 89 93 92 91 91 90 89 88 88 89 88 86 84 81 78 76 73 70 67 63 61 61 61 63 63 57 56 72 85 86 86 83 128 226 227 222 223 222 207 190 180 175 171 165 158 156 158
247 271 292 284 225 169 128 109 106 104 102 97 96 99 95 88 91 94 93 89 88 87 87 86 85 87 88 87 84 81 79 76 73 71 69 64 62 63 64 68 70 66 64 76 99 114 115 106 109 124 131 145 171 189 194 187 174 160 157 159 156 158 164